Вернуться в каталог

DELTA 1 DEB

АктивенPO
NORAD 8682·DEBRIS·🇺🇸 United States

Запущен Jan 22, 1975 с Vandenberg Space Force Base

Loading…

Ближайшие Пролёты (ближайшие 24 часа)

TLE

СвежийSource: Space-Track

Эпоха: Sep 14, 2026, 11:37 UTC

1 08682U 75004J   26257.48467655  .00000200  00000-0  97128-4 0  9990
2 08682  97.7322 274.6226 0150267 183.1176 176.9082 14.20873205662990

Отслеживайте DELTA 1 DEB в реальном времени с AllMySat

Download on the App Store